71P/Clark (2017)

Japanese version
Home page
Updated on January 17, 2017

---------------------------------------------------------------------

* Profile

* Orbital Elements

Epoch 2017 June 16.0 TT = JDT 2457920.5
T 2017 June 30.20303 TT                                 MPCW
q   1.5862754            (2000.0)            P               Q
n   0.17738594     Peri.  208.91541     -0.03426129     +0.98937020
a   3.1370630      Node    59.44480     -0.88248416     +0.03642363
e   0.4943438      Incl.    9.44576     -0.46909260     -0.14078325
P   5.56
From 915 observations 2005 Dec. 22-2017 Jan. 4, mean residual 0".9.
     Nongravitational parameters A1 = +2.30, A2 = +0.0750.

* Finding Charts

* Magnitudes Graph

        m1 = 7.2 + 5 log d + 20.0 log r(t - 30)

---------------------------------------------------------------------

The orbital elements are published on M.P.E.C. 2017-A13.
The charts are made with StellaNavigator Ver.8 (AstroArts).
The magnitudes graphs are made with Comet for Windows.

---------------------------------------------------------------------

Copyright(C) Seiichi Yoshida (comet@aerith.net). All rights reserved.